Weather History for Defiance, OH

Change the Weather History Date:

Sunday, July 22, 2012

  Actual Average Record
Temperature  
Mean Temperature 80 °F -  
Max Temperature 91 °F 84 °F 99 °F (1983)
Min Temperature 68 °F 61 °F 46 °F (1970)
Cooling Degree Days 14    
Growing Degree Days 30 (Base 50)    
Moisture  
Dew Point 64 °F    
Average Humidity 60    
Maximum Humidity 87    
Minimum Humidity 38    
Precipitation  
Precipitation 0.00 in - - ()
Sea Level Pressure  
Sea Level Pressure 30.08 in    
Wind  
Wind Speed 3 mph (SW)    
Max Wind Speed 10 mph    
Max Gust Speed 17 mph    
Visibility 10 miles    
Events      
Averages and records for this station are not official NWS values.
T = Trace of Precipitation, MM = Missing Value Source: NWS Daily Summary

Daily Weather History Graph

Daily Weather History Graph

Search for Another Location

Airport:

Trip Planner

Search our weather history database for the weather conditions in past years. The results will help you decide how hot, cold, wet, or windy it might be!

Date:

Astronomy

Jul. 22, 2012 Rise Set
Actual Time 6:23 AM EDT 9:03 PM EDT
Civil Twilight 5:51 AM EDT 9:35 PM EDT
Nautical Twilight 5:11 AM EDT 10:16 PM EDT
Astronomical Twilight 4:25 AM EDT 11:01 PM EDT
Moon 10:11 AM EDT (7/22) 10:42 PM EDT (7/22)
Length of Visible Light 15h 44m
Length of Day
14h 40m
Waxing Crescent, 13% of the Moon is Illuminated
Jul 22
Waxing Crescent
Jul 26
First Quarter
Aug 1
Full
Aug 9
Last Quarter
Aug 17
New

Hourly Weather History & Observations

Time (EDT) Temp. Heat Index Dew Point Humidity Pressure Visibility Wind Dir Wind Speed Gust Speed Precip Events Conditions
12:53 AM 73.0 °F - 66.0 °F 79% 30.07 in 10.0 mi Calm Calm - N/A   Clear
1:53 AM 73.0 °F - 64.9 °F 76% 30.07 in 10.0 mi SSW 3.5 mph - N/A   Clear
2:53 AM 73.0 °F - 64.0 °F 73% 30.06 in 10.0 mi Calm Calm - N/A   Clear
3:53 AM 72.0 °F - 64.9 °F 78% 30.06 in 10.0 mi Calm Calm - N/A   Clear
4:53 AM 71.1 °F - 64.9 °F 81% 30.07 in 10.0 mi SSW 3.5 mph - N/A   Clear
5:53 AM 69.1 °F - 64.0 °F 84% 30.09 in 10.0 mi Calm Calm - N/A   Clear
6:53 AM 68.0 °F - 64.0 °F 87% 30.11 in 9.0 mi Calm Calm - N/A   Clear
7:53 AM 73.0 °F - 64.0 °F 73% 30.11 in 10.0 mi SW 3.5 mph - N/A   Clear
8:53 AM 77.0 °F - 62.1 °F 60% 30.12 in 10.0 mi SW 5.8 mph - N/A   Clear
9:53 AM 81.0 °F 81.9 °F 62.1 °F 52% 30.12 in 10.0 mi SW 9.2 mph - N/A   Mostly Cloudy
10:53 AM 84.0 °F 84.9 °F 63.0 °F 49% 30.12 in 10.0 mi Variable 6.9 mph - N/A   Partly Cloudy
11:53 AM 84.9 °F 85.9 °F 63.0 °F 48% 30.12 in 10.0 mi WSW 6.9 mph - N/A   Overcast
12:53 PM 87.1 °F 87.5 °F 62.1 °F 43% 30.10 in 10.0 mi WSW 8.1 mph - N/A   Partly Cloudy
1:53 PM 89.1 °F 89.3 °F 62.1 °F 40% 30.09 in 10.0 mi WSW 10.4 mph 17.3 mph N/A   Partly Cloudy
2:53 PM 90.0 °F 90.6 °F 63.0 °F 40% 30.08 in 10.0 mi SW 8.1 mph 17.3 mph N/A   Clear
3:53 PM 91.0 °F 91.9 °F 63.0 °F 39% 30.06 in 10.0 mi SW 6.9 mph - N/A   Clear
4:53 PM 91.9 °F 92.9 °F 63.0 °F 38% 30.05 in 10.0 mi Variable 5.8 mph 17.3 mph N/A   Clear
5:53 PM 89.1 °F 90.0 °F 63.0 °F 42% 30.04 in 10.0 mi SW 8.1 mph 16.1 mph N/A   Clear
6:53 PM 87.1 °F 89.2 °F 66.0 °F 49% 30.04 in 10.0 mi SW 4.6 mph - N/A   Clear
7:53 PM 84.9 °F 86.6 °F 64.9 °F 51% 30.05 in 10.0 mi WSW 4.6 mph - N/A   Clear
8:53 PM 82.9 °F 85.0 °F 66.0 °F 56% 30.05 in 10.0 mi Calm Calm - N/A   Clear
9:53 PM 81.0 °F 83.3 °F 66.9 °F 62% 30.07 in 10.0 mi Calm Calm - N/A   Mostly Cloudy
10:53 PM 80.1 °F 82.7 °F 68.0 °F 67% 30.07 in 10.0 mi Calm Calm - N/A   Mostly Cloudy
11:53 PM 77.0 °F - 69.1 °F 76% 30.06 in 10.0 mi Calm Calm - N/A   Mostly Cloudy